Regional Weather Roundup
Issued by NWS

Home | Current Version | Previous Version | Text Only | Print | Product List | Glossary On
Versions: 1 2 3 4 5 6 7 8 9 10 11 12 13 14 15 16 17 18 19 20 21 22 23 24 25 26 27 28 29 30 31 32 33 34 35 36 37 38 39 40 41 42 43 44 45 46 47 48 49 50
395
ASUS45 KBOI 130810
RWRID

IDAHO REGIONAL WEATHER ROUNDUP
NATIONAL WEATHER SERVICE BOISE ID
100 AM MST SAT FEB 13 2016

NOTE: "FAIR" INDICATES FEW OR NO CLOUDS BELOW 12000 FEET
WITH NO SIGNIFICANT WEATHER AND/OR OBSTRUCTIONS TO VISIBILITY

IDZ012-014-130900-
SOUTHWEST IDAHO


CITY           SKY/WX    TMP DP  RH WIND       PRES   REMARKS
BOISE          CLOUDY    36  33  89 NW6       30.18S WCI  31
CALDWELL       CLOUDY    34  32  92 W6        30.21R FOG     WCI  29
MOUNTAIN HOME  CLOUDY    37  30  77 SE12      30.17F WCI  29
$$

IDZ016-017-130900-
SOUTHCENTRAL IDAHO


CITY           SKY/WX    TMP DP  RH WIND       PRES   REMARKS
BURLEY         MOCLDY    31  28  89 CALM      30.17F
JEROME         CLOUDY    34  27  75 NE14      30.18S WCI  25
TWIN FALLS     CLOUDY    33  31  92 SE6       30.18S WCI  28
$$

IDZ019>023-130900-
SOUTHEAST IDAHO


CITY           SKY/WX    TMP DP  RH WIND       PRES   REMARKS
IDAHO FALLS    CLOUDY    21  19  92 CALM      30.22S
POCATELLO      CLOUDY    28  23  81 CALM      30.22S
REXBURG        CLOUDY    28  25  88 CALM      30.20F
$$

IDZ006-010-011-018-031-032-130900-
CENTRAL IDAHO MOUNTAINS


CITY           SKY/WX    TMP DP  RH WIND       PRES   REMARKS
MCCALL         PTCLDY    31  27  85 NE3       30.12S
HAILEY         CLOUDY    34  30  86 N5        30.21S WCI  30
STANLEY          N/A     32  26  78 CALM      30.16F
SALMON         CLOUDY    28  27  93 CALM      30.13F
CHALLIS        MOCLDY    23  21  92 CALM      30.12F
$$

IDZ002-004-006-007-026-130900-
NORTHERN IDAHO


CITY           SKY/WX    TMP DP  RH WIND       PRES   REMARKS
LEWISTON       LGT RAIN  47  41  80 S3        30.16F
LOWELL           N/A     41  39  93 CALM      30.18R
COEUR D`ALENE  CLOUDY    43  37  81 SW12      30.08R
MULLAN PASS    FOG       30  29  96 VRB3      30.03S VSB 1
$$




USA.gov is the U.S. government's official web portal to all federal, state and local government web resources and services.